User: anonymous   Login
Location: Lesignano de� Bagni
(44.6500°N, 10.3000°E)
Time: 14:42:44
(UTC+00:00)
Language:

Cosmos 1461 - Orbit

View from above orbital plane
View from above orbital plane
View from above satellite
View from above satellite

Ground track
Ground track

The orbit data is extracted from the following two-line orbital elements,

1 14064U 83044A   21135.49831074  .00000542  00000-0  58583-4 0  9996
2 14064  64.9996 180.1382 0107554 208.5560 150.9640 14.95187287936758
Epoch (UTC): 15 May 2021 11:57:34
Eccentricity: 0.0107554
inclination: 64.9996°
perigee height: 507 km
apogee height: 656 km
right ascension of ascending node: 180.1382°
argument of perigee: 208.5560°
revolutions per day: 14.95187287
mean anomaly at epoch: 150.9640°
orbit number at epoch: 93675

The dashed part of the orbit path shows where the satellite is in the earth's shadow,  

DLR